PGT1917 LCEN-LTFJ

Flight info

Callsign PGT1917
Flight time N/A
Altitude 36000
Route GIRNE DCT DOREN A28 UMDOT UT38 VAPEK UL610 EKSEN L610 ETAMP
Aircraft A21N/M-SDE2E3FGHIJ1RWXY/LB1

Departure

Time 2026-05-07 18:25
Airport Ercan International Airport (LCEN)

Arrival

Time N/A
Airport Istanbul Sabiha Gökçen International Airport (LTFJ)
Time Latitude Longitude Altitude Speed Heading
2026-05-07 18:00 35.15755 33.50129 417 ft 0 kts 21°
2026-05-07 18:17 35.15741 33.50122 394 ft 4 kts 17°
2026-05-07 18:17 35.15715 33.50116 398 ft 4 kts
2026-05-07 18:18 35.15698 33.50115 398 ft 1 kts 360°
2026-05-07 18:21 35.15704 33.50113 398 ft 2 kts 341°
2026-05-07 18:21 35.15721 33.50096 391 ft 4 kts 306°
2026-05-07 18:21 35.15734 33.50057 398 ft 6 kts 279°
2026-05-07 18:21 35.15733 33.50001 398 ft 7 kts 264°
2026-05-07 18:22 35.15726 33.49930 398 ft 9 kts 262°
2026-05-07 18:22 35.15720 33.49876 398 ft 10 kts 262°
2026-05-07 18:22 35.15703 33.49759 398 ft 7 kts 256°
2026-05-07 18:22 35.15689 33.49690 398 ft 9 kts 256°
2026-05-07 18:23 35.15647 33.49629 399 ft 11 kts 182°
2026-05-07 18:23 35.15576 33.49678 398 ft 13 kts 143°
2026-05-07 18:23 35.15505 33.49749 397 ft 14 kts 139°
2026-05-07 18:23 35.15446 33.49791 398 ft 6 kts 152°
2026-05-07 18:24 35.15420 33.49836 396 ft 0 kts 112°
2026-05-07 18:24 35.15346 33.50062 395 ft 67 kts 112°
2026-05-07 18:24 35.15084 33.50863 400 ft 133 kts 112°
2026-05-07 18:25 35.14675 33.52108 463 ft 173 kts 113°
2026-05-07 18:25 35.14221 33.53456 1098 ft 170 kts 115°
2026-05-07 18:25 35.13840 33.54836 1707 ft 177 kts 93°
2026-05-07 18:25 35.14195 33.56308 2043 ft 192 kts 54°
2026-05-07 18:26 35.14928 33.57736 2610 ft 206 kts 55°
2026-05-07 18:26 35.15682 33.59302 3190 ft 222 kts 57°
2026-05-07 18:26 35.16494 33.61032 3616 ft 247 kts 58°
2026-05-07 18:26 35.17364 33.62907 4289 ft 258 kts 57°
2026-05-07 18:27 35.18551 33.64530 5150 ft 258 kts 35°
2026-05-07 18:27 35.20185 33.65423 6014 ft 260 kts 12°
2026-05-07 18:27 35.21995 33.65412 6896 ft 265 kts 349°
2026-05-07 18:27 35.23710 33.64540 7695 ft 272 kts 333°
2026-05-07 18:28 35.25344 33.63337 8497 ft 276 kts 331°
2026-05-07 18:28 35.26997 33.62110 9331 ft 280 kts 332°
2026-05-07 18:28 35.28690 33.60883 10128 ft 285 kts 332°
2026-05-07 18:28 35.30454 33.59629 10574 ft 303 kts 332°
2026-05-07 18:29 35.32347 33.58300 10880 ft 325 kts 331°
2026-05-07 18:29 35.34366 33.56884 11276 ft 341 kts 331°
2026-05-07 18:29 35.36445 33.55430 11983 ft 346 kts 331°
2026-05-07 18:29 35.38544 33.53964 12773 ft 349 kts 331°
2026-05-07 18:30 35.40661 33.52486 13550 ft 352 kts 330°
2026-05-07 18:30 35.42799 33.50995 14283 ft 354 kts 330°
2026-05-07 18:30 35.44947 33.49496 14982 ft 356 kts 330°
2026-05-07 18:30 35.47106 33.47986 15694 ft 358 kts 330°
2026-05-07 18:31 35.49280 33.46464 16363 ft 362 kts 330°
2026-05-07 18:31 35.51475 33.44924 17034 ft 364 kts 329°
2026-05-07 18:31 35.53682 33.43379 17708 ft 366 kts 329°
2026-05-07 18:31 35.55903 33.41822 18375 ft 369 kts 329°
2026-05-07 18:32 35.58136 33.40263 18939 ft 370 kts 329°
2026-05-07 18:32 35.60382 33.38693 19522 ft 372 kts 329°
2026-05-07 18:32 35.62641 33.37126 20095 ft 374 kts 331°
2026-05-07 18:32 35.65047 33.35889 20657 ft 377 kts 342°
2026-05-07 18:33 35.67607 33.35125 21220 ft 380 kts 346°
2026-05-07 18:33 35.70203 33.34448 21793 ft 382 kts 346°
2026-05-07 18:33 35.72807 33.33770 22351 ft 384 kts 346°
2026-05-07 18:33 35.75425 33.33078 22916 ft 386 kts 346°
2026-05-07 18:34 35.78054 33.32370 23468 ft 388 kts 345°
2026-05-07 18:34 35.80660 33.31664 23946 ft 390 kts 345°
2026-05-07 18:34 35.83316 33.30948 24390 ft 392 kts 346°
2026-05-07 18:34 35.85985 33.30230 24832 ft 393 kts 346°
2026-05-07 18:35 35.88664 33.29509 25265 ft 395 kts 346°
2026-05-07 18:35 35.91357 33.28788 25694 ft 397 kts 346°
2026-05-07 18:35 35.94108 33.28347 26115 ft 401 kts 355°
2026-05-07 18:35 35.96910 33.28372 26539 ft 404 kts 358°
2026-05-07 18:36 35.99730 33.28498 26939 ft 406 kts 359°
2026-05-07 18:36 36.02560 33.28624 27331 ft 408 kts 358°
2026-05-07 18:36 36.05398 33.28642 27716 ft 409 kts 356°
2026-05-07 18:36 36.08247 33.28598 28078 ft 410 kts 356°
2026-05-07 18:37 36.11108 33.28548 28447 ft 412 kts 356°
2026-05-07 18:37 36.13981 33.28495 28837 ft 414 kts 355°
2026-05-07 18:37 36.16863 33.28485 29203 ft 415 kts 357°
2026-05-07 18:37 36.19758 33.28515 29560 ft 417 kts 357°
2026-05-07 18:38 36.22659 33.28542 29914 ft 418 kts 357°
2026-05-07 18:38 36.25573 33.28570 30236 ft 419 kts 357°
2026-05-07 18:38 36.28487 33.28599 30591 ft 418 kts 357°
2026-05-07 18:38 36.31387 33.28601 30971 ft 415 kts 355°
2026-05-07 18:39 36.34238 33.28198 31328 ft 410 kts 345°
2026-05-07 18:39 36.36943 33.27147 31697 ft 406 kts 335°
2026-05-07 18:39 36.39410 33.25491 32061 ft 403 kts 326°
2026-05-07 18:39 36.41571 33.23293 32412 ft 402 kts 316°
2026-05-07 18:40 36.43393 33.20672 32760 ft 402 kts 310°
2026-05-07 18:40 36.45096 33.17925 33111 ft 400 kts 309°
2026-05-07 18:40 36.46781 33.15186 33457 ft 398 kts 310°
2026-05-07 18:40 36.48471 33.12467 33779 ft 397 kts 310°
2026-05-07 18:41 36.50164 33.09771 34092 ft 395 kts 310°
2026-05-07 18:41 36.51856 33.07082 34343 ft 395 kts 310°
2026-05-07 18:41 36.53543 33.04392 34552 ft 395 kts 310°
2026-05-07 18:41 36.55236 33.01699 34722 ft 395 kts 310°
2026-05-07 18:42 36.56926 32.99001 34898 ft 396 kts 310°
2026-05-07 18:42 36.58621 32.96298 35092 ft 396 kts 310°
2026-05-07 18:42 36.60315 32.93593 35271 ft 396 kts 309°
2026-05-07 18:42 36.62007 32.90882 35428 ft 397 kts 309°
2026-05-07 18:43 36.63701 32.88169 35583 ft 397 kts 309°
2026-05-07 18:43 36.65400 32.85468 35726 ft 396 kts 310°
2026-05-07 18:43 36.67073 32.82795 35846 ft 397 kts 309°
2026-05-07 18:43 36.68767 32.80073 35981 ft 398 kts 309°
2026-05-07 18:44 36.70457 32.77340 36131 ft 398 kts 309°
2026-05-07 18:44 36.73854 32.71880 36228 ft 398 kts 309°
2026-05-07 18:45 36.77264 32.66420 36205 ft 400 kts 309°
2026-05-07 18:45 36.80662 32.60954 36190 ft 399 kts 309°
2026-05-07 18:46 36.84060 32.55464 36206 ft 399 kts 309°
2026-05-07 18:46 36.87449 32.49975 36212 ft 399 kts 309°
2026-05-07 18:47 36.90843 32.44490 36212 ft 399 kts 309°
2026-05-07 18:47 36.94227 32.38995 36213 ft 399 kts 309°
2026-05-07 18:48 36.97611 32.33492 36215 ft 399 kts 309°
2026-05-07 18:48 37.00994 32.27986 36213 ft 400 kts 309°
2026-05-07 18:49 37.04381 32.22461 36217 ft 399 kts 309°
2026-05-07 18:49 37.07760 32.16955 36214 ft 399 kts 309°
2026-05-07 18:50 37.11138 32.11442 36209 ft 400 kts 309°
2026-05-07 18:50 37.14508 32.05928 36210 ft 398 kts 308°
2026-05-07 18:51 37.17838 32.00451 36208 ft 397 kts 308°
2026-05-07 18:51 37.21193 31.94937 36203 ft 398 kts 308°
2026-05-07 18:52 37.24559 31.89424 36205 ft 398 kts 308°
2026-05-07 18:52 37.27921 31.83902 36201 ft 398 kts 308°
2026-05-07 18:53 37.31276 31.78363 36189 ft 400 kts 308°
2026-05-07 18:53 37.34641 31.72786 36193 ft 400 kts 308°
2026-05-07 18:54 37.37887 31.67091 36195 ft 401 kts 304°
2026-05-07 18:54 37.40929 31.61215 36194 ft 401 kts 304°
2026-05-07 18:55 37.43968 31.55335 36191 ft 401 kts 304°
2026-05-07 18:55 37.47012 31.49450 36189 ft 401 kts 304°
2026-05-07 18:56 37.49538 31.44555 36195 ft 401 kts 304°
2026-05-07 18:56 37.52580 31.38648 36201 ft 402 kts 304°
2026-05-07 18:57 37.55616 31.32735 36205 ft 402 kts 304°
2026-05-07 18:57 37.58647 31.26820 36196 ft 402 kts 304°
2026-05-07 18:58 37.61683 31.20895 36186 ft 403 kts 303°
2026-05-07 18:58 37.64726 31.14954 36203 ft 403 kts 303°
2026-05-07 18:59 37.67772 31.09011 36210 ft 403 kts 303°
2026-05-07 18:59 37.70810 31.03061 36214 ft 403 kts 303°
2026-05-07 19:00 37.73836 30.97106 36225 ft 402 kts 303°
2026-05-07 19:00 37.76869 30.91133 36209 ft 405 kts 303°
2026-05-07 19:01 37.79886 30.85183 36203 ft 404 kts 303°
2026-05-07 19:01 37.82919 30.79188 36207 ft 405 kts 303°
2026-05-07 19:02 37.85951 30.73189 36208 ft 405 kts 303°
2026-05-07 19:02 37.89465 30.67659 36209 ft 405 kts 318°
2026-05-07 19:02 37.91763 30.65592 36213 ft 407 kts 329°
2026-05-07 19:03 37.94330 30.64045 36221 ft 409 kts 334°
2026-05-07 19:03 37.99567 30.61246 36210 ft 408 kts 334°
2026-05-07 19:04 38.04787 30.58412 36202 ft 408 kts 334°
2026-05-07 19:04 38.10003 30.55556 36203 ft 409 kts 334°
2026-05-07 19:05 38.15223 30.52699 36208 ft 408 kts 334°
2026-05-07 19:05 38.20451 30.49827 36213 ft 408 kts 334°
2026-05-07 19:06 38.25664 30.46953 36216 ft 409 kts 334°
2026-05-07 19:06 38.33490 30.42644 36210 ft 409 kts 334°
2026-05-07 19:07 38.38711 30.39756 36205 ft 408 kts 334°
2026-05-07 19:07 38.43948 30.36861 36211 ft 410 kts 334°
2026-05-07 19:08 38.49182 30.33957 36216 ft 410 kts 334°
2026-05-07 19:08 38.54417 30.31055 36209 ft 410 kts 334°
2026-05-07 19:09 38.59647 30.28155 36210 ft 410 kts 334°
2026-05-07 19:09 38.64871 30.25247 36207 ft 410 kts 334°
2026-05-07 19:10 38.70103 30.22334 36208 ft 410 kts 334°
2026-05-07 19:10 38.75331 30.19427 36203 ft 410 kts 334°
2026-05-07 19:11 38.80559 30.16511 36204 ft 410 kts 334°
2026-05-07 19:11 38.85736 30.13613 36114 ft 405 kts 334°
2026-05-07 19:12 38.88318 30.12165 35811 ft 407 kts 334°
2026-05-07 19:12 38.90921 30.10707 35542 ft 409 kts 334°
2026-05-07 19:12 38.93533 30.09237 35304 ft 411 kts 334°
2026-05-07 19:12 38.96153 30.07760 35061 ft 411 kts 334°
2026-05-07 19:13 38.98773 30.06281 34809 ft 412 kts 334°
2026-05-07 19:13 39.01394 30.04796 34565 ft 412 kts 334°
2026-05-07 19:13 39.04025 30.03313 34340 ft 413 kts 334°
2026-05-07 19:13 39.06656 30.01831 34087 ft 413 kts 334°
2026-05-07 19:14 39.09293 30.00350 33812 ft 414 kts 334°
2026-05-07 19:14 39.11930 29.98864 33538 ft 414 kts 334°
2026-05-07 19:14 39.14561 29.97380 33237 ft 412 kts 335°
2026-05-07 19:14 39.17173 29.95906 32792 ft 408 kts 335°
2026-05-07 19:15 39.19761 29.94445 32254 ft 405 kts 335°
2026-05-07 19:15 39.22333 29.92991 31704 ft 403 kts 335°
2026-05-07 19:15 39.24891 29.91544 31176 ft 400 kts 335°
2026-05-07 19:15 39.27432 29.90104 30663 ft 398 kts 335°
2026-05-07 19:16 39.29953 29.88671 30156 ft 395 kts 335°
2026-05-07 19:16 39.32464 29.87246 29555 ft 393 kts 335°
2026-05-07 19:16 39.34957 29.85831 28991 ft 390 kts 335°
2026-05-07 19:16 39.37435 29.84426 28470 ft 387 kts 335°
2026-05-07 19:17 39.39895 29.83041 27972 ft 384 kts 335°
2026-05-07 19:17 39.42334 29.81675 27469 ft 381 kts 335°
2026-05-07 19:17 39.44760 29.80316 26960 ft 379 kts 335°
2026-05-07 19:17 39.47171 29.78965 26456 ft 377 kts 335°
2026-05-07 19:18 39.49572 29.77618 25960 ft 375 kts 335°
2026-05-07 19:18 39.51959 29.76271 25489 ft 373 kts 335°
2026-05-07 19:18 39.54332 29.74936 25013 ft 371 kts 335°
2026-05-07 19:18 39.56697 29.73607 24517 ft 370 kts 335°
2026-05-07 19:19 39.59053 29.72280 24061 ft 368 kts 335°
2026-05-07 19:19 39.61392 29.70960 23745 ft 365 kts 335°
2026-05-07 19:19 39.63717 29.69648 23463 ft 364 kts 335°
2026-05-07 19:19 39.66031 29.68344 23182 ft 362 kts 335°
2026-05-07 19:20 39.68334 29.67044 22916 ft 360 kts 335°
2026-05-07 19:20 39.70630 29.65747 22649 ft 359 kts 335°
2026-05-07 19:20 39.72915 29.64448 22385 ft 358 kts 335°
2026-05-07 19:20 39.75194 29.63160 22125 ft 357 kts 335°
2026-05-07 19:21 39.77464 29.61874 21813 ft 355 kts 335°
2026-05-07 19:21 39.79717 29.60597 21386 ft 352 kts 335°
2026-05-07 19:21 39.81953 29.59330 20921 ft 349 kts 335°
2026-05-07 19:21 39.84171 29.58074 20478 ft 347 kts 335°
2026-05-07 19:22 39.86375 29.56822 20037 ft 344 kts 335°
2026-05-07 19:22 39.88569 29.55574 19601 ft 344 kts 335°
2026-05-07 19:22 39.90771 29.54351 19149 ft 343 kts 338°
2026-05-07 19:22 39.93022 29.53428 18885 ft 335 kts 340°
2026-05-07 19:23 39.95165 29.52252 18204 ft 337 kts 332°
2026-05-07 19:23 39.97266 29.50819 17309 ft 345 kts 330°
2026-05-07 19:23 39.99414 29.49331 16386 ft 354 kts 331°
2026-05-07 19:23 40.01599 29.47836 15587 ft 354 kts 331°
2026-05-07 19:24 40.03771 29.46359 14778 ft 351 kts 332°
2026-05-07 19:24 40.05929 29.44898 14021 ft 348 kts 332°
2026-05-07 19:24 40.08056 29.43462 13470 ft 340 kts 332°
2026-05-07 19:24 40.10126 29.42065 13068 ft 331 kts 332°
2026-05-07 19:25 40.12148 29.40695 12700 ft 324 kts 332°
2026-05-07 19:25 40.14136 29.39354 12327 ft 319 kts 332°
2026-05-07 19:25 40.16095 29.38030 11904 ft 316 kts 332°
2026-05-07 19:25 40.18035 29.36718 11505 ft 312 kts 332°
2026-05-07 19:26 40.19963 29.35411 11121 ft 312 kts 332°
2026-05-07 19:26 40.21892 29.34101 10780 ft 310 kts 332°
2026-05-07 19:26 40.23774 29.32826 10509 ft 299 kts 332°
2026-05-07 19:26 40.25584 29.31598 10279 ft 287 kts 332°
2026-05-07 19:27 40.27318 29.30421 10108 ft 277 kts 332°
2026-05-07 19:27 40.29020 29.29264 9863 ft 275 kts 332°
2026-05-07 19:27 40.30716 29.28112 9551 ft 275 kts 332°
2026-05-07 19:27 40.32409 29.26958 9218 ft 274 kts 331°
2026-05-07 19:28 40.34105 29.25802 8909 ft 275 kts 331°
2026-05-07 19:28 40.35778 29.24660 8583 ft 275 kts 331°
2026-05-07 19:28 40.37488 29.23494 8302 ft 271 kts 331°
2026-05-07 19:28 40.39112 29.22387 8135 ft 262 kts 330°
2026-05-07 19:29 40.40541 29.21019 7987 ft 249 kts 309°
2026-05-07 19:29 40.41515 29.19161 7944 ft 247 kts 300°
2026-05-07 19:29 40.42383 29.17217 7948 ft 247 kts 300°
2026-05-07 19:29 40.43254 29.15267 7950 ft 248 kts 300°
2026-05-07 19:30 40.44115 29.13321 7959 ft 247 kts 296°
2026-05-07 19:30 40.44619 29.11179 7955 ft 247 kts 274°
2026-05-07 19:30 40.44538 29.08924 7969 ft 248 kts 264°
2026-05-07 19:30 40.44336 29.06675 7970 ft 248 kts 264°
2026-05-07 19:31 40.44339 29.04338 7968 ft 257 kts 283°
2026-05-07 19:31 40.45070 29.02217 7963 ft 258 kts 307°
2026-05-07 19:31 40.46430 29.00689 7964 ft 261 kts 331°
2026-05-07 19:31 40.48163 29.00034 7861 ft 260 kts 354°
2026-05-07 19:32 40.49987 29.00081 7340 ft 267 kts
2026-05-07 19:32 40.51863 29.00245 6846 ft 272 kts
2026-05-07 19:32 40.53765 29.00388 6490 ft 275 kts 360°
2026-05-07 19:32 40.55676 29.00508 6141 ft 275 kts 359°